This demonstration page uses our WeatherBlox Daily Observations layout. Learn more.

Left ArrowRight Arrow

Hourly Observations for July 23, 2017

Temp ( °F °C ) Dew Point ( °F °C ) Humidity (%) Winds ( mph kmh ) Pressure ( in mb ) Visibility ( mi km ) Precip ( " mm )
12:53 am 00:53 Clear 71 21.7 69 20.6 94 94 Calm 29.95 1014 10 16 0.00 0.00
1:53 am 01:53 Clear 71 21.7 67 19.4 87 87 N 3 6 29.94 1014 9 14 0.00 0.00
2:53 am 02:53 Clear 69 20.6 66 18.9 90 90 NNE 5 7 29.93 1014 9 14 0.00 0.00
3:53 am 03:53 Clear 69 20.6 66 18.9 90 90 Calm 29.92 1013 7 11 0.00 0.00
4:53 am 04:53 Clear 68 20 64 17.8 87 87 Calm 29.93 1014 9 14 0.00 0.00
5:53 am 05:53 Clear 67 19.4 64 17.8 91 91 W 5 7 29.95 1014 7 11 0.00 0.00
6:53 am 06:53 Sunny with Mist and Fog 67 19.4 64 17.8 91 91 Calm 29.96 1015 5 8 0.00 0.00
7:53 am 07:53 Sunny with Mist and Fog 69 20.6 66 18.9 90 90 W 5 7 29.98 1015 5 8 0.00 0.00
8:53 am 08:53 Sunny 73 22.8 67 19.4 81 81 W 5 7 30.00 1016 8 13 0.00 0.00
9:53 am 09:53 Sunny 78 25.6 68 20 71 71 Calm 29.99 1016 9 14 0.00 0.00
10:53 am 10:53 Sunny 81 27.2 70 21.1 69 69 W 6 9 29.98 1015 10 16 0.00 0.00
11:53 am 11:53 Sunny 85 29.4 69 20.6 59 59 NW 7 11 29.98 1015 10 16 0.00 0.00
12:53 pm 12:53 Sunny 85 29.4 66 18.9 53 53 NNW 14 22 29.98 1015 10 16 0.00 0.00
1:53 pm 13:53 Sunny 85 29.4 66 18.9 53 53 N 9 15 29.97 1015 10 16 0.00 0.00
2:53 pm 14:53 Sunny 87 30.6 68 20 53 53 NNE 9 15 29.96 1015 10 16 0.00 0.00
3:53 pm 15:53 Sunny 87 30.6 68 20 53 53 NNE 10 17 29.96 1014 10 16 0.00 0.00
4:53 pm 16:53 Sunny 86 30 67 19.4 53 53 NE 10 17 29.95 1014 10 16 0.00 0.00
5:53 pm 17:53 Sunny 86 30 67 19.4 53 53 NE 9 15 29.94 1014 10 16 0.00 0.00
6:53 pm 18:53 Sunny 84 28.9 67 19.4 57 57 E 7 11 29.94 1014 10 16 0.00 0.00
7:53 pm 19:53 Sunny 82 27.8 68 20 63 63 ENE 8 13 29.93 1014 10 16 0.00 0.00
8:53 pm 20:53 Sunny 77 25 68 20 74 74 E 6 9 29.94 1014 10 16 0.00 0.00
9:53 pm 21:53 Clear 75 23.9 67 19.4 76 76 E 7 11 29.96 1015 10 16 0.00 0.00
10:53 pm 22:53 Clear 76 24.4 64 17.8 67 67 ESE 9 15 29.97 1015 10 16 0.00 0.00
11:53 pm 23:53 Clear 74 23.3 63 17.2 69 69 ESE 9 15 29.98 1015 10 16 0.00 0.00

Powered by AerisWeather